Big Bear Station Historical Data
Daily Summary for October 17, 2017 Units:  English    Metric   Both
« Previous Day
Next Day »
Daily Weekly Monthly Yearly Custom
  High: Low: Average:
Temperature: 72.9 °F 36.0 °F 52.4 °F
Dew Point: 41.3 °F 18.6 °F 31.8 °F
Humidity: 83 % 20 % 51 %
Wind Speed: 7.3 mph 0.0 mph 1.1 mph
Wind Gust: -999.0 mph - -
Wind:- - West
Pressure: 30.36 in 30.28 in -
Precipitation: 0.00 in    
Historical Graphs
 
 
Tabular Data for October 17, 2017
Time Temperature Dew Point Pressure Wind Wind Speed Wind Gust Humidity Rainfall Rate (Hourly)
00:01 39.9 °F 18.6 °F 30.36 in Calm   -999.0 mph 42 % 0 in
00:16 39.7 °F 19.6 °F 30.36 in Calm   -999.0 mph 44 % 0 in
00:31 39.4 °F 19.8 °F 30.36 in Calm   -999.0 mph 45 % 0 in
00:47 39.2 °F 21.1 °F 30.36 in Calm   -999.0 mph 48 % 0 in
01:02 39.0 °F 21.4 °F 30.36 in Calm   -999.0 mph 49 % 0 in
01:17 39.0 °F 22.9 °F 30.35 in Calm   -999.0 mph 52 % 0 in
01:32 38.8 °F 23.6 °F 30.35 in Calm   -999.0 mph 54 % 0 in
01:47 38.3 °F 25.2 °F 30.35 in Calm   -999.0 mph 59 % 0 in
02:03 38.5 °F 27.0 °F 30.34 in Calm   -999.0 mph 63 % 0 in
02:18 37.8 °F 28.5 °F 30.34 in Calm   -999.0 mph 69 % 0 in
02:33 38.1 °F 29.5 °F 30.34 in Calm   -999.0 mph 71 % 0 in
02:48 37.4 °F 29.2 °F 30.33 in Calm   -999.0 mph 72 % 0 in
03:03 37.6 °F 29.7 °F 30.33 in Calm   -999.0 mph 73 % 0 in
03:19 37.2 °F 29.7 °F 30.33 in Calm   -999.0 mph 74 % 0 in
03:34 37.2 °F 30.0 °F 30.33 in Calm   -999.0 mph 75 % 0 in
03:49 36.7 °F 30.5 °F 30.33 in Calm   -999.0 mph 78 % 0 in
04:04 36.7 °F 30.5 °F 30.33 in Calm   -999.0 mph 78 % 0 in
04:19 36.9 °F 31.3 °F 30.33 in Calm   -999.0 mph 80 % 0 in
04:35 36.7 °F 31.4 °F 30.33 in Calm   -999.0 mph 81 % 0 in
04:50 36.3 °F 31.0 °F 30.33 in Calm   -999.0 mph 81 % 0 in
05:05 36.7 °F 31.7 °F 30.32 in Calm   -999.0 mph 82 % 0 in
05:20 36.3 °F 31.3 °F 30.33 in Calm   -999.0 mph 82 % 0 in
05:35 36.1 °F 31.1 °F 30.33 in Calm   -999.0 mph 82 % 0 in
05:51 36.3 °F 31.3 °F 30.33 in Calm   -999.0 mph 82 % 0 in
06:06 36.1 °F 31.1 °F 30.33 in Calm   -999.0 mph 82 % 0 in
06:21 36.5 °F 31.5 °F 30.33 in Calm   -999.0 mph 82 % 0 in
06:36 36.3 °F 30.7 °F 30.33 in Calm   -999.0 mph 80 % 0 in
06:52 36.3 °F 30.4 °F 30.33 in Calm   -999.0 mph 79 % 0 in
07:07 36.0 °F 31.3 °F 30.33 in Calm   -999.0 mph 83 % 0 in
07:22 36.5 °F 31.5 °F 30.33 in Calm   -999.0 mph 82 % 0 in
07:37 36.5 °F 31.2 °F 30.33 in Calm   -999.0 mph 81 % 0 in
07:52 36.7 °F 32.0 °F 30.33 in Calm   -999.0 mph 83 % 0 in
08:08 37.0 °F 32.3 °F 30.34 in Calm   -999.0 mph 83 % 0 in
08:23 37.6 °F 32.9 °F 30.34 in Calm   -999.0 mph 83 % 0 in
08:38 38.7 °F 33.7 °F 30.34 in Calm   -999.0 mph 82 % 0 in
08:53 40.3 °F 34.6 °F 30.35 in Calm   -999.0 mph 80 % 0 in
09:08 41.2 °F 34.9 °F 30.35 in Calm   -999.0 mph 78 % 0 in
09:24 43.9 °F 35.1 °F 30.35 in Calm   -999.0 mph 71 % 0 in
09:39 46.4 °F 36.0 °F 30.35 in Calm   -999.0 mph 67 % 0 in
09:54 49.1 °F 37.8 °F 30.35 in SSW 2.2 mph -999.0 mph 65 % 0 in
10:09 53.2 °F 38.4 °F 30.35 in Calm   -999.0 mph 57 % 0 in
10:24 63.5 °F 28.9 °F 30.35 in Calm   -999.0 mph 27 % 0 in
10:40 66.7 °F 29.8 °F 30.34 in Calm   -999.0 mph 25 % 0 in
10:55 67.8 °F 28.6 °F 30.34 in NW 2.7 mph -999.0 mph 23 % 0 in
11:11 69.4 °F 26.6 °F 30.34 in Calm   -999.0 mph 20 % 0 in
11:26 70.2 °F 29.6 °F 30.33 in NW 2.2 mph -999.0 mph 22 % 0 in
11:42 71.6 °F 30.7 °F 30.33 in NW 4.7 mph -999.0 mph 22 % 0 in
11:57 71.6 °F 34.9 °F 30.33 in NW 4.7 mph -999.0 mph 26 % 0 in
12:12 72.1 °F 33.3 °F 30.32 in NNW 4.2 mph -999.0 mph 24 % 0 in
12:27 72.1 °F 30.0 °F 30.32 in ENE 3.7 mph -999.0 mph 21 % 0 in
12:43 72.3 °F 31.3 °F 30.32 in NW 3.7 mph -999.0 mph 22 % 0 in
12:58 72.7 °F 36.8 °F 30.31 in NW 5.3 mph -999.0 mph 27 % 0 in
13:13 72.9 °F 31.8 °F 30.31 in South 2.2 mph -999.0 mph 22 % 0 in
13:28 72.9 °F 36.0 °F 30.31 in NNW 7.3 mph -999.0 mph 26 % 0 in
13:43 71.6 °F 35.8 °F 30.30 in NW 1.7 mph -999.0 mph 27 % 0 in
13:59 72.7 °F 38.6 °F 30.29 in NNW 4.7 mph -999.0 mph 29 % 0 in
14:14 71.2 °F 39.8 °F 30.30 in NNW 5.3 mph -999.0 mph 32 % 0 in
14:29 71.1 °F 36.3 °F 30.29 in NNE 2.7 mph -999.0 mph 28 % 0 in
14:45 70.9 °F 37.9 °F 30.29 in NNW 4.7 mph -999.0 mph 30 % 0 in
15:00 70.7 °F 39.4 °F 30.29 in North 4.2 mph -999.0 mph 32 % 0 in
15:31 69.4 °F 41.3 °F 30.29 in NNE 4.2 mph -999.0 mph 36 % 0 in
15:46 69.6 °F 38.4 °F 30.29 in NW 3.2 mph -999.0 mph 32 % 0 in
16:02 68.5 °F 37.5 °F 30.28 in WNW 2.2 mph -999.0 mph 32 % 0 in
16:17 68.5 °F 38.3 °F 30.29 in NW 3.7 mph -999.0 mph 33 % 0 in
16:32 67.6 °F 35.9 °F 30.28 in WNW 1.7 mph -999.0 mph 31 % 0 in
16:47 66.7 °F 35.9 °F 30.28 in NNW 2.7 mph -999.0 mph 32 % 0 in
17:02 66.4 °F 34.8 °F 30.28 in Calm   -999.0 mph 31 % 0 in
17:18 64.9 °F 33.5 °F 30.28 in Calm   -999.0 mph 31 % 0 in
17:33 64.0 °F 29.3 °F 30.28 in Calm   -999.0 mph 27 % 0 in
17:48 63.7 °F 29.1 °F 30.28 in Calm   -999.0 mph 27 % 0 in
18:03 63.0 °F 30.2 °F 30.28 in Calm   -999.0 mph 29 % 0 in
18:18 61.9 °F 32.5 °F 30.28 in Calm   -999.0 mph 33 % 0 in
18:34 62.1 °F 31.9 °F 30.28 in Calm   -999.0 mph 32 % 0 in
18:49 61.7 °F 31.5 °F 30.28 in Calm   -999.0 mph 32 % 0 in
19:04 60.6 °F 30.6 °F 30.28 in Calm   -999.0 mph 32 % 0 in
19:19 59.5 °F 31.1 °F 30.29 in Calm   -999.0 mph 34 % 0 in
19:34 58.3 °F 30.8 °F 30.29 in South 2.7 mph -999.0 mph 35 % 0 in
19:50 57.2 °F 30.5 °F 30.30 in NW 2.2 mph -999.0 mph 36 % 0 in
20:05 56.1 °F 33.3 °F 30.30 in WNW 1.7 mph -999.0 mph 42 % 0 in
20:35 56.7 °F 33.9 °F 30.30 in South 1.7 mph -999.0 mph 42 % 0 in
20:51 56.5 °F 34.3 °F 30.30 in SSE 1.7 mph -999.0 mph 43 % 0 in
21:06 56.5 °F 33.7 °F 30.30 in WSW 1.7 mph -999.0 mph 42 % 0 in
21:21 56.1 °F 33.3 °F 30.30 in Calm   -999.0 mph 42 % 0 in
21:36 55.0 °F 33.5 °F 30.30 in Calm   -999.0 mph 44 % 0 in
21:51 53.6 °F 32.2 °F 30.30 in SSW 1.7 mph -999.0 mph 44 % 0 in
22:07 52.9 °F 32.1 °F 30.30 in Calm   -999.0 mph 45 % 0 in
22:22 52.2 °F 33.1 °F 30.30 in South 1.7 mph -999.0 mph 48 % 0 in
22:37 51.3 °F 32.3 °F 30.29 in Calm   -999.0 mph 48 % 0 in
22:52 50.5 °F 33.0 °F 30.29 in Calm   -999.0 mph 51 % 0 in
23:07 50.0 °F 33.1 °F 30.29 in Calm   -999.0 mph 52 % 0 in
23:23 49.6 °F 32.7 °F 30.29 in Calm   -999.0 mph 52 % 0 in
23:38 48.9 °F 32.5 °F 30.29 in Calm   -999.0 mph 53 % 0 in
23:53 48.2 °F 34.1 °F 30.29 in Calm   -999.0 mph 58 % 0 in
Big Bear CA Weather
Compliments of Weather Underground - 1.5 mb